| time (UTC) | temp F | wind direction | speed knots | gust knots | rain 1hr in | rain 24hr in | rain mn in | humidity % | barometer mb |
| 20260505024804 | 65 | 33 | 4.3 | 10.4 | 0.00 | 0.00 | 0.00 | 16 | 1031.7 |
| 20260505021804 | 65 | 69 | 5.2 | 10.4 | 0.00 | 0.00 | 0.00 | 27 | 1031.9 |
| 20260505020805 | 65 | 54 | 7.0 | 10.4 | 0.00 | 0.00 | 0.00 | 41 | 1031.8 |
| 20260505020304 | 66 | 52 | 6.1 | 10.4 | 0.00 | 0.00 | 0.00 | 40 | 1031.8 |
| 20260505015805 | 65 | 49 | 4.3 | 12.2 | 0.00 | 0.00 | 0.00 | 35 | 1031.8 |
| 20260505014805 | 66 | 50 | 7.8 | 10.4 | 0.00 | 0.00 | 0.00 | 46 | 1031.9 |
| 20260505014304 | 66 | 50 | 4.3 | 12.2 | 0.00 | 0.00 | 0.00 | 42 | 1031.9 |
| 20260505012806 | 66 | 32 | 7.0 | 13.9 | 0.00 | 0.00 | 0.00 | 43 | 1032.0 |
| 20260505012305 | 66 | 51 | 4.3 | 7.8 | 0.00 | 0.00 | 0.00 | 34 | 1032.0 |
| 20260505011805 | 65 | 73 | 6.1 | 10.4 | 0.00 | 0.00 | 0.00 | 38 | 1032.1 |
| 20260505011305 | 65 | 55 | 4.3 | 8.7 | 0.00 | 0.00 | 0.00 | 35 | 1032.1 |
| 20260505010805 | 65 | 58 | 6.1 | 8.7 | 0.00 | 0.00 | 0.00 | 32 | 1032.3 |
| 20260505005804 | 64 | 65 | 5.2 | 10.4 | 0.00 | 0.00 | 0.00 | 30 | 1032.5 |
| 20260505004805 | 64 | 44 | 6.1 | 10.4 | 0.00 | 0.00 | 0.00 | 27 | 1032.7 |
| 20260505004305 | 64 | 27 | 5.2 | 10.4 | 0.00 | 0.00 | 0.00 | 25 | 1032.8 |
| 20260505003804 | 64 | 45 | 5.2 | 10.4 | 0.00 | 0.00 | 0.00 | 21 | 1032.8 |
| 20260505002804 | 64 | 52 | 6.1 | 10.4 | 0.00 | 0.00 | 0.00 | 15 | 1033.0 |
| 20260505000305 | 64 | 72 | 6.1 | 11.3 | 0.00 | 0.00 | 0.00 | 33 | 1033.2 |
| 20260504232805 | 64 | 45 | 5.2 | 10.4 | 0.00 | 0.00 | 0.00 | 33 | 1033.6 |
| 20260504231805 | 63 | 51 | 2.6 | 7.8 | 0.00 | 0.00 | 0.00 | 11 | 1033.7 |
| 20260504231305 | 63 | 38 | 4.3 | 7.8 | 0.00 | 0.00 | 0.00 | 8 | 1033.8 |
| 20260504230807 | 63 | 58 | 4.3 | 7.0 | 0.00 | 0.00 | 0.00 | 4 | 1033.9 |
| 20260504230307 | 63 | 44 | 4.3 | 7.0 | 0.00 | 0.00 | 0.00 | 4 | 1034.0 |
| 20260504225805 | 63 | 51 | 4.3 | 7.8 | 0.00 | 0.00 | 0.00 | 4 | 1034.0 |
| 20260504224805 | 63 | 57 | 5.2 | 8.7 | 0.00 | 0.00 | 0.00 | 4 | 1034.2 |
| 20260504224307 | 63 | 51 | 5.2 | 8.7 | 0.00 | 0.00 | 0.00 | 4 | 1034.2 |
| 20260504223807 | 63 | 63 | 4.3 | 7.0 | 0.00 | 0.00 | 0.00 | 4 | 1034.2 |
| 20260504223305 | 63 | 45 | 3.5 | 7.8 | 0.00 | 0.00 | 0.00 | 4 | 1034.2 |
| 20260504221805 | 62 | 47 | 2.6 | 6.1 | 0.00 | 0.00 | 0.00 | 4 | 1034.3 |
| 20260504221307 | 62 | 81 | 4.3 | 6.1 | 0.00 | 0.00 | 0.00 | 4 | 1034.2 |
| 20260504220806 | 61 | 76 | 2.6 | 6.1 | 0.00 | 0.00 | 0.00 | 4 | 1034.3 |
| 20260504215804 | 61 | 67 | 2.6 | 7.0 | 0.00 | 0.00 | 0.00 | 4 | 1034.4 |
| 20260504213304 | 60 | 60 | 1.7 | 2.6 | 0.00 | 0.00 | 0.00 | 4 | 1034.4 |
| 20260504212805 | 60 | 48 | 1.7 | 2.6 | 0.00 | 0.00 | 0.00 | 4 | 1034.4 |
| 20260504212306 | 60 | 81 | 0.9 | 2.6 | 0.00 | 0.00 | 0.00 | 4 | 1034.3 |
| 20260504211805 | 60 | 89 | 0.9 | 2.6 | 0.00 | 0.00 | 0.00 | 4 | 1034.3 |
| 20260504211305 | 59 | 118 | 1.7 | 4.3 | 0.00 | 0.00 | 0.00 | 4 | 1034.3 |
| 20260504210305 | 60 | 126 | 3.5 | 5.2 | 0.00 | 0.00 | 0.00 | 4 | 1034.3 |
| 20260504205806 | 60 | 118 | 3.5 | 6.1 | 0.00 | 0.00 | 0.00 | 4 | 1034.2 |
| 20260504203306 | 59 | 116 | 0.9 | 2.6 | 0.00 | 0.00 | 0.00 | 4 | 1034.5 |
| 20260504202807 | 58 | 115 | 1.7 | 2.6 | 0.00 | 0.00 | 0.00 | 4 | 1034.4 |
| 20260504202305 | 58 | 130 | 0.0 | 1.7 | 0.00 | 0.00 | 0.00 | 4 | 1034.5 |
| 20260504201805 | 58 | 138 | 0.9 | 2.6 | 0.00 | 0.00 | 0.00 | 4 | 1034.4 |
| 20260504201305 | 58 | 165 | 0.9 | 2.6 | 0.00 | 0.00 | 0.00 | 4 | 1034.4 |
| 20260504200804 | 58 | 116 | 0.0 | 1.7 | 0.00 | 0.00 | 0.00 | 4 | 1034.3 |
| 20260504195805 | 58 | 135 | 0.0 | 0.9 | 0.00 | 0.00 | 0.00 | 4 | 1034.2 |
| 20260504194305 | 58 | 151 | 0.0 | 2.6 | 0.00 | 0.00 | 0.00 | 4 | 1034.1 |
| 20260504185805 | 57 | 133 | 0.0 | 0.9 | 0.00 | 0.00 | 0.00 | 4 | 1034.1 |
| 20260504184805 | 57 | 130 | 0.0 | 0.9 | 0.00 | 0.00 | 0.00 | 4 | 1034.1 |
| 20260504184305 | 57 | 131 | 0.0 | 0.9 | 0.00 | 0.00 | 0.00 | 4 | 1034.1 |
| 20260504183305 | 57 | 139 | 0.0 | 1.7 | 0.00 | 0.00 | 0.00 | 4 | 1034.0 |
| 20260504182305 | 57 | 156 | 0.0 | 0.9 | 0.00 | 0.00 | 0.00 | 4 | 1034.0 |
| 20260504181306 | 57 | 114 | 0.9 | 2.6 | 0.00 | 0.00 | 0.00 | 4 | 1034.1 |
| 20260504180807 | 57 | 117 | 1.7 | 2.6 | 0.00 | 0.00 | 0.00 | 4 | 1034.0 |
| 20260504175804 | 57 | 129 | 1.7 | 2.6 | 0.00 | 0.00 | 0.00 | 4 | 1034.0 |
| 20260504175305 | 57 | 126 | 1.7 | 2.6 | 0.00 | 0.00 | 0.00 | 4 | 1034.0 |
| 20260504174805 | 57 | 123 | 0.0 | 1.7 | 0.00 | 0.00 | 0.00 | 4 | 1034.0 |
| 20260504174304 | 57 | 131 | 0.9 | 2.6 | 0.00 | 0.00 | 0.00 | 4 | 1034.0 |
| 20260504172804 | 57 | 118 | 0.9 | 2.6 | 0.00 | 0.00 | 0.00 | 4 | 1033.9 |
| 20260504171305 | 57 | 105 | 0.9 | 1.7 | 0.00 | 0.00 | 0.00 | 4 | 1033.9 |
| 20260504150805 | 56 | 118 | 1.7 | 2.6 | 0.00 | 0.00 | 0.00 | 4 | 1034.2 |
| 20260504140807 | 56 | 104 | 0.9 | 2.6 | 0.00 | 0.00 | 0.00 | 4 | 1034.8 |
| 20260504130306 | 57 | 112 | 0.9 | 0.9 | 0.00 | 0.00 | 0.00 | 11 | 1035.3 |
| 20260504120305 | 58 | 127 | 0.9 | 1.7 | 0.00 | 0.00 | 0.00 | 27 | 1035.4 |
| 20260504100305 | 56 | 102 | 1.7 | 2.6 | 0.00 | 0.00 | 0.00 | 4 | 1035.4 |
| 20260504081806 | 57 | 97 | 0.9 | 2.6 | 0.00 | 0.00 | 0.00 | 18 | 1035.1 |
| 20260504081307 | 57 | 94 | 0.9 | 2.6 | 0.00 | 0.00 | 0.00 | 18 | 1035.1 |
| 20260504080305 | 57 | 105 | 0.9 | 2.6 | 0.00 | 0.00 | 0.00 | 19 | 1035.2 |
| 20260504070307 | 58 | 74 | 0.9 | 0.9 | 0.00 | 0.00 | 0.00 | 44 | 1034.7 |
| 20260504050305 | 64 | 61 | 2.6 | 6.1 | 0.00 | 0.00 | 0.00 | 64 | 1033.9 |
| 20260504045806 | 64 | 59 | 2.6 | 5.2 | 0.00 | 0.00 | 0.00 | 64 | 1033.8 |
| 20260504045305 | 64 | 32 | 2.6 | 5.2 | 0.00 | 0.00 | 0.00 | 64 | 1033.8 |
| 20260504044805 | 65 | 58 | 1.7 | 4.3 | 0.00 | 0.00 | 0.00 | 63 | 1033.7 |
| 20260504043306 | 65 | 65 | 1.7 | 5.2 | 0.00 | 0.00 | 0.00 | 63 | 1033.7 |
| 20260504040805 | 65 | 53 | 2.6 | 5.2 | 0.00 | 0.00 | 0.00 | 65 | 1034.0 |
| 20260504034804 | 65 | 33 | 3.5 | 5.2 | 0.00 | 0.00 | 0.00 | 63 | 1034.1 |
| 20260504034304 | 65 | 61 | 3.5 | 5.2 | 0.00 | 0.00 | 0.00 | 63 | 1034.1 |
| 20260504033805 | 65 | 61 | 4.3 | 8.7 | 0.00 | 0.00 | 0.00 | 63 | 1034.0 |
| 20260504031305 | 65 | 90 | 3.5 | 7.0 | 0.00 | 0.00 | 0.00 | 63 | 1034.1 |